星链-5239 (STARLINK-5239 )

导读

STARLINK-5239是美国SpaceX公司星链(Starlink)星座的成员卫星,于2022年10月28日发射升空,属于低轨互联网通信卫星。它运行在约550公里近地轨道,配备相控阵天线与激光互联设备,可为全球偏远地区提供低延迟高速宽带服务,是星链大规模星座组网计划中,实现全球覆盖卫星互联网的重要组成部分。

Basic Information
目录编号:
54183
目录名称:
STARLINK-5239
国际标识:
2022-141AC
轨道中心:
EARTH
卫星名称:
星链-5239
卫星全名:
星链-5239 (STARLINK-5239 )
卫星状态:
在轨 (已飞行1415 天)
发射日期:
2022-10-28 UTC
国别 :
美国 (US)
星等 :
--
This satellite is enrolled in the Space Conjunction Data Service (SCDS) and the current flight risk assessment level is: No High Risk
Orbit Information
数据来源 国际轨道数据 AOE轨道数据
星历时间 2026-09-12T13:38:49+0800
8小时前
查看轨道信息
2026-09-10T23:00:00+0800
1天前
查看轨道信息
半长轴 6840.868km 6840.807km
偏心率 0.0001238 0.0001155
轨道倾角 53.158° 53.158°
近地点辐角 89.437° 111.918°
升交点赤经 232.463° 239.991°
平近点角 270.677° 348.300°
近地点 461.884km 461.879km
远地点 463.578km 463.461km
周期 93.848分钟 93.847分钟
每日圈数 15.343908 15.344115
Detailed Information
固有亮度:
5
最大亮度:
2.5
卫星平台:
Starlink v1.5
覆盖范围:
全球
运营商:
太空探索技术公司
运营商所在国:
美国
制造商(研发单位):
太空探索技术公司
制造商所在国:
美国
使用方式:
暂无
Satellite Introduction
星链(Starlink)计划是由太空探索技术公司(SpaceX)提出的一个巨型低轨卫星互联网星座项目,计划在2019年至2024年间在太空搭建由约1.2万颗卫星组成的“星链”网络,其中1584颗将部署在地球上空550千米处的近地轨道,并从2020年开始工作。该卫星仍在工作。
2D Orbit Map
3D Orbit Map
Orbit Altitude Analysis Chart
Orbit Inclination Analysis Chart
Orbit Comprehensive Analysis Chart
View Comprehensive Chart
Conjunction Data List
Event ID Objects TCA Miss Dist (km) Collision Risk Probability Collision Risk Index (CRI) Action
CDM_260914-014405-418306-459521
2026-09-14T
01:44:46+0000
0.684 km
远距离
4.336562E-5 中风险 0.68
CDM_260914-014105-418306-564221
2026-09-14T
01:41:57+0000
2.006 km
极远距离
1.865064E-6 低风险 0.4
CDM_260914-031805-418306-459521
2026-09-14T
03:18:33+0000
1.980 km
极远距离
1.467807E-6 低风险 0.38
CDM_260914-113705-326505-418321
2026-09-14T
11:37:25+0000
2.891 km
极远距离
1.252646E-6 低风险 0.37
Miss Distance Evolution Trend with All Objects
Collision Probability Evolution Trend with All Objects